[ hide orbit diagram ]
For accurate long-term ephemerides, please instead use our Horizons system.This orbit viewer was implemented using two-body methods, and hence should not be used for determining accurate long-term trajectories (over several years or decades) or planetary encounter circumstances.
Orbital Elements at Epoch 2459200.5 (2020-Dec-17.0) TDB
Reference: JPL 25 (heliocentric ecliptic J2000)
Element | Value | Uncertainty (1-sigma) | Units |
e | .1742398147189602 | 4.1791e-08 | |
a | 2.344879095737564 | 7.5317e-09 | au |
q | 1.936307796557888 | 9.6804e-08 | au |
i | 3.084536920869523 | 3.5952e-06 | deg |
node | 125.278892302557 | 8.2097e-05 | deg |
peri | 73.89529354243089 | 8.2646e-05 | deg |
M | 112.3123692750289 | 9.9371e-06 | deg |
tp | 2458791.329610486614 (2019-Nov-03.82961049) | 3.5635e-05 | TDB |
period | 1311.532658207125 3.59 | 6.3189e-06 1.73e-08 | d yr |
n | .2744880180811682 | 1.3225e-09 | deg/d |
Q | 2.75345039491724 | 8.8441e-09 | au |
|
| | Orbit Determination Parameters
Additional Information
|
[ show covariance matrix ]
Physical Parameter Table
Parameter |
Symbol |
Value |
Units |
Sigma |
Reference |
Notes |
absolute magnitude |
H |
14.96 |
|
n/a |
E2021B10 |
|
|
11598 Kubí k | Discovered 1995 July 22 by L. Šarounová at Ondřejov. |
The discoverer's brother, Jakub Šaroun (b. 1974), is a talented amateur musician and photographer. This minor planet is being named on the occasion of his 25th birthday. |
NOTE: some special characters may not display properly (any characters within {} are an attempt to place the proper accent above a character) |
Reference: 19991123/MPCPages.arc | Last Updated: 2010-06-11 |
|
[ show close-approach data ]
|